| time (UTC) | temp F | wind direction | speed MPH | gust MPH | rain 1hr in | rain 24hr in | rain mn in | humidity % | barometer mb |
| 20260507071259 | 49 | 331 | 0.0 | 2.0 | 0.00 | 0.00 | 0.00 | 73 | 1011.5 |
| 20260507070756 | 49 | 323 | 1.0 | 2.0 | 0.00 | 0.00 | 0.00 | 73 | 1011.5 |
| 20260507070253 | 50 | 325 | 1.0 | 2.0 | 0.00 | 0.00 | 0.00 | 72 | 1011.8 |
| 20260507065750 | 50 | 325 | 1.0 | 2.0 | 0.00 | 0.00 | 0.00 | 72 | 1011.6 |
| 20260507065247 | 50 | 325 | 1.0 | 2.0 | 0.00 | 0.00 | 0.00 | 72 | 1011.6 |
| 20260507064744 | 50 | 325 | 1.0 | 2.0 | 0.00 | 0.00 | 0.00 | 72 | 1011.6 |
| 20260507064243 | 50 | 315 | 5.0 | 7.0 | 0.00 | 0.00 | 0.00 | 71 | 1011.5 |
| 20260507063740 | 50 | 321 | 2.0 | 2.0 | 0.00 | 0.00 | 0.00 | 72 | 1011.4 |
| 20260507063236 | 51 | 332 | 0.0 | 0.0 | 0.00 | 0.00 | 0.00 | 73 | 1011.4 |
| 20260507062733 | 51 | 347 | 4.0 | 5.0 | 0.00 | 0.00 | 0.00 | 72 | 1011.5 |
| 20260507062231 | 51 | 347 | 4.0 | 5.0 | 0.00 | 0.00 | 0.00 | 72 | 1011.5 |
| 20260507061729 | 51 | 324 | 2.0 | 2.0 | 0.00 | 0.00 | 0.00 | 74 | 1011.6 |
| 20260507061226 | 51 | 345 | 2.0 | 7.0 | 0.00 | 0.00 | 0.00 | 74 | 1011.6 |
| 20260507060724 | 51 | 303 | 3.0 | 5.0 | 0.00 | 0.00 | 0.00 | 75 | 1011.7 |
| 20260507060221 | 52 | 319 | 1.0 | 2.0 | 0.00 | 0.00 | 0.00 | 76 | 1011.6 |
| 20260507055716 | 52 | 327 | 3.0 | 5.0 | 0.00 | 0.00 | 0.00 | 76 | 1011.6 |
| 20260507055212 | 52 | 324 | 1.0 | 2.0 | 0.00 | 0.00 | 0.00 | 77 | 1011.5 |
| 20260507054709 | 52 | 320 | 2.0 | 5.0 | 0.00 | 0.00 | 0.00 | 78 | 1011.5 |
| 20260507054206 | 52 | 317 | 2.0 | 5.0 | 0.00 | 0.00 | 0.00 | 77 | 1011.5 |
| 20260507053703 | 52 | 311 | 4.0 | 5.0 | 0.00 | 0.00 | 0.00 | 77 | 1011.5 |
| 20260507053201 | 52 | 311 | 4.0 | 7.0 | 0.00 | 0.00 | 0.00 | 79 | 1011.6 |
| 20260507052659 | 52 | 323 | 4.0 | 10.0 | 0.00 | 0.00 | 0.00 | 81 | 1011.5 |
| 20260507052155 | 52 | 312 | 5.0 | 7.0 | 0.00 | 0.00 | 0.00 | 83 | 1011.6 |
| 20260507051653 | 52 | 303 | 3.0 | 5.0 | 0.00 | 0.00 | 0.00 | 83 | 1011.6 |
| 20260507051149 | 52 | 320 | 2.0 | 5.0 | 0.00 | 0.00 | 0.00 | 82 | 1011.5 |
| 20260507050647 | 52 | 294 | 2.0 | 5.0 | 0.00 | 0.00 | 0.00 | 83 | 1011.4 |
| 20260507050143 | 52 | 298 | 4.0 | 5.0 | 0.00 | 0.00 | 0.00 | 84 | 1011.2 |
| 20260507045640 | 52 | 298 | 4.0 | 5.0 | 0.00 | 0.00 | 0.00 | 84 | 1011.3 |
| 20260507045137 | 52 | 325 | 1.0 | 2.0 | 0.00 | 0.00 | 0.00 | 84 | 1011.2 |
| 20260507044634 | 52 | 308 | 2.0 | 5.0 | 0.00 | 0.00 | 0.00 | 85 | 1011.2 |
| 20260507044131 | 51 | 291 | 4.0 | 7.0 | 0.00 | 0.00 | 0.00 | 88 | 1011.3 |
| 20260507043627 | 51 | 312 | 2.0 | 5.0 | 0.00 | 0.00 | 0.00 | 90 | 1011.4 |
| 20260507043124 | 51 | 325 | 0.0 | 0.0 | 0.00 | 0.00 | 0.00 | 91 | 1010.9 |
| 20260507042620 | 52 | 288 | 2.0 | 2.0 | 0.00 | 0.00 | 0.00 | 90 | 1011.1 |
| 20260507042115 | 52 | 288 | 2.0 | 2.0 | 0.00 | 0.00 | 0.00 | 90 | 1011.0 |
| 20260507041612 | 52 | 288 | 2.0 | 2.0 | 0.00 | 0.00 | 0.00 | 90 | 1011.1 |
| 20260507041104 | 52 | 288 | 2.0 | 2.0 | 0.00 | 0.00 | 0.00 | 90 | 1011.2 |
| 20260507040601 | 52 | 323 | 1.0 | 2.0 | 0.00 | 0.00 | 0.00 | 90 | 1011.3 |
| 20260507040057 | 51 | 299 | 0.0 | 2.0 | 0.00 | 0.37 | 0.37 | 90 | 1011.5 |
| 20260507035553 | 51 | 331 | 0.0 | 0.0 | 0.00 | 0.37 | 0.37 | 90 | 1011.1 |
| 20260507035049 | 52 | 325 | 0.0 | 2.0 | 0.00 | 0.37 | 0.37 | 90 | 1011.1 |
| 20260507034545 | 51 | 331 | 0.0 | 0.0 | 0.00 | 0.37 | 0.37 | 89 | 1010.9 |
| 20260507034043 | 51 | 327 | 0.0 | 2.0 | 0.00 | 0.37 | 0.37 | 90 | 1011.2 |
| 20260507033541 | 51 | 331 | 0.0 | 0.0 | 0.00 | 0.37 | 0.37 | 89 | 1011.0 |
| 20260507033038 | 51 | 1 | 1.0 | 2.0 | 0.00 | 0.37 | 0.37 | 90 | 1010.9 |
| 20260507032535 | 51 | 337 | 0.0 | 0.0 | 0.00 | 0.37 | 0.37 | 90 | 1011.2 |
| 20260507032032 | 51 | 337 | 0.0 | 0.0 | 0.00 | 0.37 | 0.37 | 90 | 1011.3 |
| 20260507031528 | 51 | 334 | 0.0 | 0.0 | 0.00 | 0.37 | 0.37 | 89 | 1011.3 |
| 20260507031025 | 51 | 333 | 0.0 | 0.0 | 0.00 | 0.37 | 0.37 | 89 | 1011.3 |
| 20260507030522 | 51 | 326 | 0.0 | 0.0 | 0.00 | 0.37 | 0.37 | 89 | 1011.2 |
| 20260507030020 | 51 | 329 | 0.0 | 0.0 | 0.00 | 0.37 | 0.37 | 89 | 1010.8 |
| 20260507025517 | 51 | 334 | 0.0 | 0.0 | 0.00 | 0.37 | 0.37 | 88 | 1010.8 |
| 20260507025015 | 52 | 334 | 0.0 | 0.0 | 0.00 | 0.37 | 0.37 | 88 | 1010.9 |
| 20260507024512 | 52 | 333 | 0.0 | 2.0 | 0.00 | 0.37 | 0.37 | 87 | 1010.8 |
| 20260507024009 | 52 | 314 | 0.0 | 0.0 | 0.00 | 0.37 | 0.37 | 87 | 1011.0 |
| 20260507023504 | 53 | 331 | 0.0 | 0.0 | 0.00 | 0.37 | 0.37 | 86 | 1011.1 |
| 20260507023001 | 53 | 342 | 0.0 | 2.0 | 0.00 | 0.37 | 0.37 | 86 | 1011.1 |
| 20260507022458 | 53 | 336 | 1.0 | 2.0 | 0.00 | 0.37 | 0.37 | 86 | 1010.9 |
| 20260507021953 | 53 | 344 | 2.0 | 5.0 | 0.00 | 0.37 | 0.37 | 86 | 1010.9 |
| 20260507021449 | 53 | 337 | 0.0 | 2.0 | 0.00 | 0.37 | 0.37 | 86 | 1011.1 |
| 20260507020947 | 53 | 359 | 2.0 | 7.0 | 0.00 | 0.37 | 0.37 | 86 | 1011.2 |
| 20260507020443 | 53 | 348 | 4.0 | 7.0 | 0.00 | 0.37 | 0.37 | 86 | 1011.4 |
| 20260507015940 | 53 | 7 | 1.0 | 2.0 | 0.00 | 0.37 | 0.37 | 86 | 1011.4 |
| 20260507015439 | 53 | 346 | 6.0 | 7.0 | 0.00 | 0.37 | 0.37 | 86 | 1011.5 |
| 20260507014935 | 53 | 3 | 0.0 | 5.0 | 0.00 | 0.37 | 0.37 | 86 | 1011.5 |
| 20260507014432 | 53 | 0 | 1.0 | 2.0 | 0.00 | 0.37 | 0.37 | 86 | 1011.5 |
| 20260507013923 | 53 | 336 | 4.0 | 5.0 | 0.00 | 0.37 | 0.37 | 86 | 1011.5 |
| 20260507013420 | 53 | 356 | 3.0 | 7.0 | 0.00 | 0.37 | 0.37 | 86 | 1011.5 |
| 20260507012918 | 54 | 1 | 2.0 | 2.0 | 0.00 | 0.37 | 0.37 | 86 | 1011.5 |
| 20260507012414 | 54 | 347 | 0.0 | 10.0 | 0.00 | 0.37 | 0.37 | 86 | 1011.2 |
| 20260507011911 | 54 | 18 | 4.0 | 7.0 | 0.00 | 0.37 | 0.37 | 86 | 1011.4 |
| 20260507011408 | 54 | 354 | 2.0 | 2.0 | 0.00 | 0.37 | 0.37 | 86 | 1011.4 |
| 20260507010907 | 54 | 0 | 1.0 | 2.0 | 0.00 | 0.37 | 0.37 | 86 | 1011.4 |
| 20260507010403 | 54 | 342 | 2.0 | 7.0 | 0.00 | 0.37 | 0.37 | 86 | 1011.4 |
| 20260507005900 | 54 | 345 | 2.0 | 2.0 | 0.00 | 0.37 | 0.37 | 86 | 1011.3 |
| 20260507005356 | 54 | 338 | 0.0 | 5.0 | 0.00 | 0.37 | 0.37 | 86 | 1011.2 |
| 20260507004853 | 54 | 343 | 2.0 | 5.0 | 0.00 | 0.37 | 0.37 | 86 | 1010.9 |
| 20260507004351 | 54 | 10 | 6.0 | 12.0 | 0.00 | 0.37 | 0.37 | 86 | 1011.0 |
| 20260507003850 | 54 | 20 | 8.0 | 12.0 | 0.00 | 0.37 | 0.37 | 86 | 1010.5 |
| 20260507003344 | 54 | 347 | 5.0 | 7.0 | 0.00 | 0.37 | 0.37 | 86 | 1010.5 |
| 20260507002839 | 54 | 21 | 4.0 | 5.0 | 0.00 | 0.37 | 0.37 | 87 | 1010.6 |
| 20260507002335 | 55 | 353 | 3.0 | 5.0 | 0.00 | 0.37 | 0.37 | 87 | 1010.4 |
| 20260507001833 | 55 | 347 | 2.0 | 7.0 | 0.00 | 0.37 | 0.37 | 87 | 1010.2 |
| 20260507001329 | 55 | 339 | 0.0 | 2.0 | 0.00 | 0.37 | 0.37 | 86 | 1010.3 |
| 20260507000826 | 55 | 350 | 3.0 | 5.0 | 0.00 | 0.37 | 0.37 | 85 | 1010.1 |
| 20260507000321 | 55 | 334 | 4.0 | 5.0 | 0.00 | 0.37 | 0.37 | 85 | 1010.0 |
| 20260506235818 | 55 | 343 | 0.0 | 2.0 | 0.00 | 0.37 | 0.37 | 86 | 1009.6 |
| 20260506235314 | 55 | 349 | 2.0 | 2.0 | 0.00 | 0.37 | 0.37 | 85 | 1009.5 |
| 20260506234811 | 55 | 345 | 2.0 | 5.0 | 0.00 | 0.37 | 0.37 | 85 | 1009.5 |
| 20260506234308 | 55 | 348 | 1.0 | 2.0 | 0.00 | 0.37 | 0.37 | 85 | 1009.5 |
| 20260506233806 | 55 | 337 | 2.0 | 5.0 | 0.00 | 0.37 | 0.37 | 85 | 1009.4 |
| 20260506233256 | 55 | 25 | 1.0 | 2.0 | 0.00 | 0.37 | 0.37 | 86 | 1009.3 |
| 20260506232753 | 55 | 6 | 0.0 | 5.0 | 0.00 | 0.37 | 0.37 | 85 | 1009.3 |
| 20260506232248 | 55 | 352 | 1.0 | 7.0 | 0.00 | 0.37 | 0.37 | 85 | 1009.2 |
| 20260506231745 | 56 | 353 | 4.0 | 7.0 | 0.00 | 0.37 | 0.37 | 85 | 1009.1 |
| 20260506231244 | 56 | 344 | 4.0 | 12.0 | 0.00 | 0.37 | 0.37 | 85 | 1009.2 |
| 20260506230740 | 56 | 350 | 2.0 | 7.0 | 0.00 | 0.37 | 0.37 | 86 | 1009.1 |
| 20260506230237 | 56 | 38 | 3.0 | 5.0 | 0.00 | 0.37 | 0.37 | 86 | 1008.8 |
| 20260506225733 | 56 | 353 | 2.0 | 5.0 | 0.00 | 0.37 | 0.37 | 85 | 1008.7 |
| 20260506225231 | 57 | 350 | 5.0 | 7.0 | 0.00 | 0.37 | 0.37 | 85 | 1008.6 |
| 20260506224727 | 57 | 356 | 2.0 | 7.0 | 0.00 | 0.37 | 0.37 | 85 | 1008.7 |
| 20260506224225 | 57 | 10 | 2.0 | 5.0 | 0.00 | 0.37 | 0.37 | 86 | 1008.3 |
| 20260506223721 | 57 | 337 | 1.0 | 7.0 | 0.00 | 0.37 | 0.37 | 85 | 1008.5 |
| 20260506223216 | 57 | 17 | 2.0 | 7.0 | 0.00 | 0.37 | 0.37 | 85 | 1008.5 |
| 20260506222713 | 58 | 339 | 1.0 | 5.0 | 0.00 | 0.37 | 0.37 | 86 | 1008.4 |
| 20260506222208 | 58 | 353 | 2.0 | 10.0 | 0.00 | 0.37 | 0.37 | 86 | 1008.2 |
| 20260506221707 | 58 | 320 | 3.0 | 7.0 | 0.00 | 0.37 | 0.37 | 87 | 1008.3 |
| 20260506221205 | 58 | 42 | 1.0 | 2.0 | 0.00 | 0.37 | 0.37 | 88 | 1008.0 |
| 20260506220701 | 58 | 2 | 7.0 | 10.0 | 0.00 | 0.37 | 0.37 | 87 | 1007.9 |
| 20260506220156 | 59 | 345 | 10.0 | 12.0 | 0.00 | 0.37 | 0.37 | 87 | 1007.8 |
| 20260506215653 | 59 | 325 | 2.0 | 7.0 | 0.00 | 0.37 | 0.37 | 87 | 1007.5 |
| 20260506215148 | 59 | 11 | 7.0 | 15.0 | 0.00 | 0.37 | 0.37 | 87 | 1007.6 |
| 20260506214645 | 60 | 0 | 7.0 | 10.0 | 0.00 | 0.37 | 0.37 | 86 | 1007.5 |
| 20260506214143 | 63 | 339 | 6.0 | 15.0 | 0.00 | 0.37 | 0.37 | 84 | 1007.2 |
| 20260506213641 | 64 | 333 | 3.0 | 5.0 | 0.00 | 0.37 | 0.37 | 86 | 1006.8 |
| 20260506213138 | 64 | 286 | 7.0 | 10.0 | 0.00 | 0.37 | 0.37 | 86 | 1006.7 |
| 20260506212635 | 64 | 277 | 8.0 | 10.0 | 0.00 | 0.37 | 0.37 | 86 | 1006.6 |
| 20260506212130 | 64 | 274 | 6.0 | 10.0 | 0.00 | 0.37 | 0.37 | 86 | 1006.5 |
| 20260506211626 | 65 | 275 | 4.0 | 10.0 | 0.00 | 0.37 | 0.37 | 86 | 1006.5 |
| 20260506211123 | 65 | 262 | 9.0 | 17.0 | 0.00 | 0.37 | 0.37 | 85 | 1006.4 |
| 20260506210620 | 65 | 334 | 6.0 | 12.0 | 0.00 | 0.37 | 0.37 | 86 | 1006.3 |
| 20260506210116 | 65 | 299 | 9.0 | 12.0 | 0.00 | 0.37 | 0.37 | 86 | 1006.3 |
| 20260506205613 | 65 | 272 | 5.0 | 10.0 | 0.00 | 0.37 | 0.37 | 87 | 1006.2 |
| 20260506205108 | 65 | 260 | 5.0 | 10.0 | 0.00 | 0.37 | 0.37 | 87 | 1006.1 |
| 20260506204606 | 65 | 278 | 4.0 | 12.0 | 0.00 | 0.37 | 0.37 | 87 | 1006.2 |
| 20260506204103 | 65 | 269 | 3.0 | 12.0 | 0.00 | 0.37 | 0.37 | 88 | 1006.0 |
| 20260506203601 | 65 | 267 | 7.0 | 10.0 | 0.00 | 0.37 | 0.37 | 88 | 1006.0 |
| 20260506203057 | 65 | 262 | 5.0 | 12.0 | 0.00 | 0.37 | 0.37 | 89 | 1006.1 |
| 20260506202555 | 65 | 273 | 6.0 | 10.0 | 0.00 | 0.37 | 0.37 | 90 | 1006.1 |
| 20260506202051 | 65 | 251 | 2.0 | 7.0 | 0.00 | 0.37 | 0.37 | 91 | 1005.9 |
| 20260506201549 | 64 | 259 | 5.0 | 7.0 | 0.00 | 0.37 | 0.37 | 91 | 1006.2 |
| 20260506201045 | 64 | 281 | 2.0 | 7.0 | 0.00 | 0.37 | 0.37 | 94 | 1005.8 |
| 20260506200541 | 64 | 272 | 5.0 | 10.0 | 0.00 | 0.37 | 0.37 | 95 | 1005.9 |
| 20260506200038 | 64 | 280 | 6.0 | 10.0 | 0.00 | 0.37 | 0.37 | 95 | 1005.9 |
| 20260506195535 | 64 | 326 | 4.0 | 7.0 | 0.00 | 0.37 | 0.37 | 94 | 1005.9 |
| 20260506195031 | 65 | 318 | 3.0 | 10.0 | 0.00 | 0.37 | 0.37 | 92 | 1005.9 |
| 20260506194529 | 65 | 269 | 5.0 | 15.0 | 0.00 | 0.37 | 0.37 | 89 | 1005.9 |
| 20260506194026 | 66 | 255 | 7.0 | 19.0 | 0.00 | 0.37 | 0.37 | 88 | 1005.9 |
| 20260506193523 | 66 | 298 | 2.0 | 5.0 | 0.00 | 0.37 | 0.37 | 88 | 1005.9 |
| 20260506193020 | 65 | 259 | 8.0 | 10.0 | 0.00 | 0.37 | 0.37 | 88 | 1005.9 |
| 20260506192517 | 65 | 288 | 6.0 | 15.0 | 0.00 | 0.37 | 0.37 | 89 | 1005.9 |
| 20260506192013 | 65 | 279 | 8.0 | 10.0 | 0.00 | 0.37 | 0.37 | 88 | 1006.0 |
| 20260506191510 | 65 | 274 | 6.0 | 12.0 | 0.00 | 0.37 | 0.37 | 88 | 1005.9 |
| 20260506191006 | 65 | 287 | 4.0 | 12.0 | 0.00 | 0.37 | 0.37 | 88 | 1005.8 |
| 20260506190503 | 66 | 304 | 5.0 | 12.0 | 0.00 | 0.37 | 0.37 | 88 | 1006.0 |
| 20260506185959 | 66 | 261 | 8.0 | 15.0 | 0.00 | 0.37 | 0.37 | 88 | 1005.9 |
| 20260506185457 | 66 | 256 | 6.0 | 12.0 | 0.00 | 0.37 | 0.37 | 88 | 1005.9 |
| 20260506184953 | 66 | 310 | 5.0 | 12.0 | 0.00 | 0.37 | 0.37 | 88 | 1006.2 |
| 20260506184451 | 66 | 259 | 7.0 | 15.0 | 0.00 | 0.37 | 0.37 | 88 | 1005.9 |
| 20260506183948 | 66 | 236 | 5.0 | 10.0 | 0.00 | 0.37 | 0.37 | 90 | 1006.0 |
| 20260506183443 | 65 | 249 | 6.0 | 15.0 | 0.00 | 0.37 | 0.37 | 90 | 1006.0 |
| 20260506182941 | 65 | 252 | 7.0 | 12.0 | 0.00 | 0.37 | 0.37 | 91 | 1005.8 |
| 20260506182438 | 65 | 268 | 3.0 | 10.0 | 0.00 | 0.37 | 0.37 | 94 | 1006.0 |
| 20260506181935 | 64 | 32 | 2.0 | 5.0 | 0.00 | 0.37 | 0.37 | 94 | 1005.9 |
| 20260506181433 | 64 | 268 | 5.0 | 7.0 | 0.00 | 0.37 | 0.37 | 94 | 1006.2 |
| 20260506180929 | 64 | 301 | 5.0 | 7.0 | 0.00 | 0.37 | 0.37 | 94 | 1006.2 |
| 20260506180426 | 64 | 215 | 3.0 | 7.0 | 0.00 | 0.37 | 0.37 | 96 | 1006.4 |
| 20260506175923 | 62 | 297 | 2.0 | 5.0 | 0.00 | 0.37 | 0.37 | 96 | 1006.2 |
| 20260506175420 | 62 | 312 | 2.0 | 5.0 | 0.00 | 0.37 | 0.37 | 97 | 1006.4 |
| 20260506174916 | 62 | 275 | 3.0 | 5.0 | 0.00 | 0.37 | 0.37 | 98 | 1006.3 |
| 20260506174414 | 61 | 280 | 5.0 | 7.0 | 0.00 | 0.37 | 0.37 | 98 | 1006.5 |
| 20260506173911 | 61 | 279 | 4.0 | 10.0 | 0.00 | 0.37 | 0.37 | 99 | 1006.2 |
| 20260506173408 | 61 | 310 | 2.0 | 5.0 | 0.00 | 0.37 | 0.37 | 99 | 1006.3 |
| 20260506172905 | 61 | 268 | 3.0 | 5.0 | 0.00 | 0.37 | 0.37 | 99 | 1006.2 |
| 20260506172401 | 60 | 299 | 4.0 | 7.0 | 0.05 | 0.37 | 0.37 | 99 | 1006.5 |
| 20260506171853 | 60 | 291 | 2.0 | 5.0 | 0.05 | 0.37 | 0.37 | 99 | 1006.6 |
| 20260506171351 | 60 | 299 | 2.0 | 5.0 | 0.00 | 0.36 | 0.36 | 99 | 1006.3 |
| 20260506170848 | 60 | 310 | 1.0 | 2.0 | 0.00 | 0.36 | 0.36 | 99 | 1006.3 |
| 20260506170344 | 60 | 316 | 2.0 | 5.0 | 0.00 | 0.36 | 0.36 | 99 | 1006.5 |
| 20260506165843 | 60 | 320 | 0.0 | 5.0 | 0.07 | 0.36 | 0.36 | 99 | 1006.7 |
| 20260506165340 | 60 | 295 | 3.0 | 5.0 | 0.07 | 0.36 | 0.36 | 99 | 1006.7 |
| 20260506164836 | 60 | 293 | 3.0 | 5.0 | 0.00 | 0.35 | 0.35 | 99 | 1006.7 |
| 20260506164333 | 60 | 285 | 3.0 | 5.0 | 0.00 | 0.35 | 0.35 | 99 | 1006.6 |
| 20260506163826 | 60 | 292 | 5.0 | 7.0 | 0.00 | 0.35 | 0.35 | 99 | 1006.7 |
| 20260506163325 | 60 | 326 | 2.0 | 5.0 | 0.00 | 0.35 | 0.35 | 98 | 1006.5 |
| 20260506162815 | 60 | 295 | 2.0 | 2.0 | 0.00 | 0.35 | 0.35 | 98 | 1006.8 |
| 20260506162314 | 60 | 315 | 1.0 | 2.0 | 0.00 | 0.35 | 0.35 | 98 | 1006.7 |
| 20260506161810 | 60 | 297 | 2.0 | 2.0 | 0.00 | 0.35 | 0.35 | 98 | 1006.7 |
| 20260506161307 | 60 | 312 | 0.0 | 2.0 | 0.00 | 0.35 | 0.35 | 98 | 1006.8 |
| 20260506160800 | 60 | 303 | 0.0 | 2.0 | 0.00 | 0.35 | 0.35 | 98 | 1006.9 |
| 20260506160256 | 60 | 321 | 0.0 | 2.0 | 0.00 | 0.35 | 0.35 | 98 | 1006.9 |
| 20260506155755 | 60 | 323 | 0.0 | 2.0 | 0.00 | 0.35 | 0.35 | 98 | 1006.7 |
| 20260506155251 | 60 | 320 | 1.0 | 2.0 | 0.00 | 0.35 | 0.35 | 98 | 1006.7 |
| 20260506153358 | 60 | 309 | 2.0 | 2.0 | 0.00 | 0.35 | 0.35 | 98 | 1006.5 |
| 20260506152855 | 59 | 302 | 2.0 | 2.0 | 0.00 | 0.35 | 0.35 | 98 | 1006.5 |
| 20260506152352 | 59 | 262 | 2.0 | 2.0 | 0.00 | 0.35 | 0.35 | 98 | 1006.3 |
| 20260506151850 | 59 | 320 | 0.0 | 5.0 | 0.00 | 0.35 | 0.35 | 98 | 1006.4 |
| 20260506151347 | 59 | 312 | 0.0 | 5.0 | 0.00 | 0.35 | 0.35 | 98 | 1006.3 |
| 20260506150844 | 59 | 269 | 2.0 | 7.0 | 0.07 | 0.35 | 0.35 | 98 | 1006.2 |
| 20260506150341 | 59 | 275 | 2.0 | 2.0 | 0.07 | 0.35 | 0.35 | 98 | 1006.3 |
| 20260506145837 | 59 | 293 | 4.0 | 5.0 | 0.07 | 0.34 | 0.34 | 98 | 1006.3 |
| 20260506145334 | 59 | 296 | 3.0 | 5.0 | 0.07 | 0.34 | 0.34 | 98 | 1006.5 |
| 20260506144832 | 59 | 309 | 2.0 | 2.0 | 0.00 | 0.32 | 0.32 | 98 | 1006.5 |
| 20260506144328 | 59 | 234 | 0.0 | 2.0 | 0.05 | 0.32 | 0.32 | 98 | 1006.5 |
| 20260506143826 | 59 | 243 | 2.0 | 5.0 | 0.05 | 0.32 | 0.32 | 98 | 1006.9 |
| 20260506143323 | 59 | 322 | 0.0 | 2.0 | 0.07 | 0.32 | 0.32 | 98 | 1006.8 |
| 20260506142821 | 59 | 321 | 0.0 | 5.0 | 0.07 | 0.32 | 0.32 | 98 | 1006.9 |
| 20260506142319 | 59 | 347 | 0.0 | 2.0 | 0.00 | 0.30 | 0.30 | 98 | 1006.9 |
| 20260506141817 | 59 | 322 | 0.0 | 5.0 | 0.00 | 0.30 | 0.30 | 98 | 1006.7 |
| 20260506141315 | 59 | 317 | 0.0 | 2.0 | 0.07 | 0.30 | 0.30 | 98 | 1006.8 |
| 20260506140813 | 59 | 310 | 1.0 | 2.0 | 0.07 | 0.30 | 0.30 | 98 | 1006.6 |
| 20260506140309 | 59 | 305 | 2.0 | 5.0 | 0.05 | 0.29 | 0.29 | 98 | 1006.5 |
| 20260506135806 | 59 | 292 | 2.0 | 2.0 | 0.19 | 0.29 | 0.29 | 98 | 1006.6 |
| 20260506135305 | 59 | 326 | 0.0 | 2.0 | 0.21 | 0.28 | 0.28 | 97 | 1006.7 |
| 20260506134759 | 59 | 315 | 0.0 | 2.0 | 0.12 | 0.26 | 0.26 | 97 | 1006.7 |
| 20260506134255 | 59 | 309 | 2.0 | 2.0 | 0.05 | 0.25 | 0.25 | 97 | 1006.5 |
| 20260506133753 | 59 | 322 | 0.0 | 2.0 | 0.07 | 0.24 | 0.24 | 97 | 1006.7 |
| 20260506133249 | 59 | 310 | 3.0 | 5.0 | 0.07 | 0.24 | 0.24 | 97 | 1006.6 |
| 20260506132746 | 59 | 323 | 0.0 | 2.0 | 0.07 | 0.23 | 0.23 | 97 | 1006.6 |
| 20260506132244 | 59 | 312 | 0.0 | 2.0 | 0.00 | 0.22 | 0.22 | 97 | 1006.7 |
| 20260506131741 | 58 | 306 | 3.0 | 5.0 | 0.07 | 0.22 | 0.22 | 97 | 1006.8 |
| 20260506131237 | 58 | 315 | 1.0 | 2.0 | 0.00 | 0.20 | 0.20 | 97 | 1006.6 |
| 20260506130734 | 59 | 312 | 2.0 | 5.0 | 0.05 | 0.20 | 0.20 | 97 | 1006.7 |
| 20260506130231 | 58 | 290 | 2.0 | 5.0 | 0.12 | 0.20 | 0.20 | 97 | 1006.6 |
| 20260506125729 | 58 | 324 | 0.0 | 10.0 | 0.14 | 0.20 | 0.20 | 97 | 1006.7 |
| 20260506125227 | 58 | 322 | 0.0 | 2.0 | 0.19 | 0.18 | 0.18 | 97 | 1006.6 |
| 20260506124725 | 58 | 332 | 0.0 | 0.0 | 0.19 | 0.17 | 0.17 | 97 | 1006.8 |
| 20260506124222 | 58 | 321 | 0.0 | 0.0 | 0.14 | 0.15 | 0.15 | 97 | 1007.0 |
| 20260506123719 | 58 | 319 | 0.0 | 2.0 | 0.14 | 0.14 | 0.14 | 97 | 1007.2 |
| 20260506123218 | 58 | 318 | 0.0 | 2.0 | 0.12 | 0.13 | 0.13 | 97 | 1007.2 |
| 20260506122715 | 58 | 316 | 0.0 | 0.0 | 0.12 | 0.12 | 0.12 | 97 | 1007.3 |
| 20260506122212 | 59 | 313 | 1.0 | 2.0 | 0.21 | 0.11 | 0.11 | 97 | 1007.4 |
| 20260506121710 | 59 | 318 | 0.0 | 0.0 | 0.12 | 0.09 | 0.09 | 97 | 1007.5 |
| 20260506121206 | 59 | 313 | 1.0 | 2.0 | 0.05 | 0.07 | 0.07 | 97 | 1007.4 |
| 20260506120704 | 59 | 310 | 2.0 | 2.0 | 0.07 | 0.07 | 0.07 | 97 | 1007.4 |
| 20260506120201 | 59 | 324 | 0.0 | 0.0 | 0.07 | 0.07 | 0.07 | 98 | 1007.3 |
| 20260506115659 | 59 | 330 | 0.0 | 0.0 | 0.00 | 0.06 | 0.06 | 98 | 1007.0 |
| 20260506115157 | 59 | 328 | 0.0 | 0.0 | 0.07 | 0.06 | 0.06 | 98 | 1006.9 |
| 20260506114654 | 59 | 332 | 0.0 | 0.0 | 0.14 | 0.06 | 0.06 | 98 | 1006.8 |
| 20260506114152 | 59 | 336 | 0.0 | 0.0 | 0.07 | 0.04 | 0.04 | 97 | 1006.8 |
| 20260506113650 | 59 | 322 | 0.0 | 0.0 | 0.00 | 0.03 | 0.03 | 97 | 1006.9 |
| 20260506113147 | 59 | 331 | 0.0 | 0.0 | 0.00 | 0.03 | 0.03 | 97 | 1006.8 |
| 20260506112643 | 59 | 332 | 0.0 | 2.0 | 0.05 | 0.03 | 0.03 | 97 | 1006.7 |
| 20260506112141 | 58 | 328 | 0.0 | 0.0 | 0.07 | 0.02 | 0.02 | 96 | 1006.8 |
| 20260506111638 | 59 | 339 | 0.0 | 0.0 | 0.07 | 0.02 | 0.02 | 96 | 1006.9 |
| 20260506111136 | 59 | 328 | 0.0 | 0.0 | 0.07 | 0.01 | 0.01 | 96 | 1006.8 |
| 20260506110633 | 59 | 338 | 0.0 | 0.0 | 0.07 | 0.01 | 0.01 | 96 | 1006.8 |
| 20260506110131 | 59 | 339 | 0.0 | 0.0 | 0.00 | 0.00 | 0.00 | 95 | 1006.6 |
| 20260506105627 | 59 | 331 | 0.0 | 0.0 | 0.00 | 0.00 | 0.00 | 95 | 1006.6 |
| 20260506105124 | 59 | 327 | 0.0 | 0.0 | 0.00 | 0.00 | 0.00 | 95 | 1006.6 |
| 20260506104622 | 59 | 335 | 0.0 | 0.0 | 0.00 | 0.00 | 0.00 | 94 | 1006.2 |
| 20260506104119 | 59 | 332 | 0.0 | 0.0 | 0.00 | 0.00 | 0.00 | 94 | 1006.4 |
| 20260506103617 | 58 | 331 | 0.0 | 0.0 | 0.00 | 0.00 | 0.00 | 94 | 1006.3 |
| 20260506103113 | 58 | 331 | 0.0 | 0.0 | 0.00 | 0.00 | 0.00 | 94 | 1006.3 |
| 20260506102612 | 59 | 337 | 0.0 | 0.0 | 0.00 | 0.00 | 0.00 | 94 | 1006.5 |
| 20260506102109 | 59 | 327 | 0.0 | 0.0 | 0.00 | 0.00 | 0.00 | 94 | 1006.4 |
| 20260506101605 | 59 | 324 | 0.0 | 2.0 | 0.00 | 0.00 | 0.00 | 94 | 1006.2 |
| 20260506101102 | 59 | 320 | 0.0 | 0.0 | 0.00 | 0.00 | 0.00 | 94 | 1006.2 |
| 20260506100601 | 59 | 326 | 0.0 | 0.0 | 0.00 | 0.00 | 0.00 | 94 | 1006.0 |
| 20260506100058 | 59 | 339 | 0.0 | 0.0 | 0.00 | 0.00 | 0.00 | 93 | 1006.1 |
| 20260506095557 | 59 | 332 | 0.0 | 0.0 | 0.00 | 0.00 | 0.00 | 93 | 1005.9 |
| 20260506095053 | 59 | 326 | 0.0 | 0.0 | 0.00 | 0.00 | 0.00 | 92 | 1006.2 |
| 20260506094551 | 59 | 333 | 0.0 | 0.0 | 0.00 | 0.00 | 0.00 | 91 | 1006.1 |
| 20260506094048 | 59 | 331 | 0.0 | 0.0 | 0.00 | 0.00 | 0.00 | 91 | 1005.8 |
| 20260506093547 | 59 | 336 | 0.0 | 0.0 | 0.00 | 0.00 | 0.00 | 92 | 1005.8 |
| 20260506093044 | 59 | 330 | 0.0 | 0.0 | 0.00 | 0.00 | 0.00 | 92 | 1006.1 |
| 20260506092541 | 59 | 319 | 0.0 | 2.0 | 0.00 | 0.00 | 0.00 | 92 | 1006.0 |
| 20260506092038 | 59 | 327 | 0.0 | 0.0 | 0.00 | 0.00 | 0.00 | 91 | 1006.1 |
| 20260506091536 | 59 | 326 | 0.0 | 2.0 | 0.00 | 0.00 | 0.00 | 91 | 1006.2 |
| 20260506091033 | 59 | 302 | 0.0 | 2.0 | 0.00 | 0.00 | 0.00 | 91 | 1006.1 |
| 20260506090531 | 59 | 319 | 2.0 | 2.0 | 0.00 | 0.00 | 0.00 | 91 | 1006.2 |
| 20260506090027 | 59 | 308 | 2.0 | 5.0 | 0.00 | 0.00 | 0.00 | 90 | 1006.1 |
| 20260506085524 | 59 | 322 | 1.0 | 2.0 | 0.00 | 0.00 | 0.00 | 90 | 1006.0 |
| 20260506085021 | 59 | 335 | 0.0 | 0.0 | 0.00 | 0.00 | 0.00 | 90 | 1005.9 |
| 20260506084518 | 59 | 337 | 0.0 | 0.0 | 0.00 | 0.00 | 0.00 | 89 | 1006.0 |
| 20260506084013 | 59 | 323 | 0.0 | 0.0 | 0.00 | 0.00 | 0.00 | 89 | 1006.0 |
| 20260506083511 | 59 | 337 | 0.0 | 2.0 | 0.00 | 0.00 | 0.00 | 89 | 1006.2 |
| 20260506083008 | 59 | 330 | 0.0 | 0.0 | 0.00 | 0.00 | 0.00 | 89 | 1006.2 |
| 20260506082505 | 59 | 330 | 0.0 | 0.0 | 0.00 | 0.00 | 0.00 | 89 | 1006.2 |
| 20260506082000 | 59 | 318 | 0.0 | 0.0 | 0.00 | 0.00 | 0.00 | 89 | 1006.1 |
| 20260506081459 | 59 | 327 | 0.0 | 0.0 | 0.00 | 0.00 | 0.00 | 89 | 1006.2 |
| 20260506080956 | 59 | 326 | 0.0 | 0.0 | 0.00 | 0.00 | 0.00 | 89 | 1006.3 |
| 20260506080453 | 59 | 344 | 0.0 | 0.0 | 0.00 | 0.00 | 0.00 | 90 | 1006.2 |
| 20260506073437 | 59 | 335 | 0.0 | 0.0 | 0.00 | 0.00 | 0.00 | 89 | 1006.2 |
| 20260506072934 | 59 | 328 | 0.0 | 0.0 | 0.00 | 0.00 | 0.00 | 89 | 1006.3 |
| 20260506072431 | 60 | 339 | 0.0 | 2.0 | 0.00 | 0.00 | 0.00 | 88 | 1006.2 |
| 20260506071929 | 60 | 329 | 0.0 | 2.0 | 0.00 | 0.00 | 0.00 | 87 | 1006.2 |